YAOGAN-31 A

Satellite information

Favourite Embed

Satellite Type and Status

PAYLOADIN ORBIT

Key statistics

Satellite YAOGAN-31 A at a glance.

Uptime

2706

Days in orbit

Revolutions

≈ 13.5

Per day

Orbit

LEO

Low Earth Orbit

Inclination

63.4

Latest

Satellite identification and parameters

Extended collection of information and parameters for YAOGAN-31 A.

Object identification

Identified? True

Debris? False

Object name: YAOGAN-31 A

International designator: 2018-034A

Object number (NORAD): 43275

Object ID (CCSDS): 43275

Country: PEOPLES REPUBLIC OF CHINA (PRC)

Current information (Y/N): Y

RCS size: LARGE

Orbital parameters

Period: 107.03 minutes

Inclination: 63.3956 deg

SMA: 7467.298 km

Apoapsis: 1275.773 km

Periapsis: 902.552 km

RAAN: 102.3966 deg

Eccentricy: 0.02499036

Argument of periapsis: 6.6069 deg

Mean anomaly: 353.8151 deg

Mean motion: 13.45418977 rev/day

Mean motion (dot): -0.00000037 rev/day2

B* drag term: 0.000074326448 1/REarth

Two-line elements (TLE)

Creation date: Sept. 6, 2025, 2:09 a.m.

Reference frame: TEME

Reference center: EARTH

Epoch: Sept. 5, 2025, 11:50 p.m. UTC

TLE line 0: 0 YAOGAN-31 A

TLE line 1: 1 43275U 18034A 25248.99317920 -.00000037 00000-0 74326-4 0 9995

TLE line 2: 2 43275 63.3956 102.3966 0249904 6.6069 353.8151 13.45418977363868

Live tracking on map

Real-time ground track for satellite YAOGAN-31 A.

In-orbit conjunctions

There are no conjunctions computed for YAOGAN-31 A, at the moment. Check back to stay up to date, as we update our databases every day.

Go to all conjunctions

Associated space launch

YAOGAN-31 A was lifted into orbit during the mission ‘Long March 4C | 3 x Yaogan-31-01’, on board a Long March 4C space rocket.

The launch took place on April 10, 2018, 4:25 a.m. from Launch Area 4 (SLS-2 / 603).

For more information about the launch, click the button.

Launch to space Long March 4C | 3 x Yaogan-31-01
Long March 4C | 3 x Yaogan-31-01

Agency: N/A

Status: Launch Successful

Launch date: April 10, 2018, 4:25 a.m. UTC

Rocket: Long March 4C

Launch pad: Launch Area 4 (SLS-2 / 603)

Location: Jiuquan Satellite Launch Center, People's Republic of China

...

Latest news about this satellite

There are no fresh news available about this satellite. Check back as we update our databases every day.


Newsletter sign-up

Weekly statistics, charts and insights to help you stay on top of the space industry.